[[{"header":{"parameterUnit":"m.s-1","parameterCategory":1,"la1":30.2991,"la2":30.254,"lo1":-89.0895,"lo2":-89.0444,"dy":0.0017,"dx":0.0017,"nx":28,"ny":28,"refTime":"2025-04-13T09:00:00:Z","depth":0,"parameterNumber":2,"parameterNumberName":"U-component_of_WINDS"},"data":[0,0,0,0,0,0,0,0,0,0,0,0,0,0,0,0,0,0,0,0,0,0,0,0,0,0,0,0,0,0,0,0,0,0,0,0,0,0,0,0,0,0,0,0,0,0,0,0,0,0,0,0,0,0,0,0,0,0,2.8462,2.8463,0,2.8484,2.8485,2.8485,2.8466,2.8465,2.8464,2.8464,2.8485,2.8486,2.8488,0,0,0,0,0,0,0,0,0,0,0,0,0,2.8403,2.8404,2.8462,2.8463,2.8463,2.8484,2.8485,2.8485,2.8466,2.8465,2.8464,2.8463,2.8485,2.8486,2.8488,0,0,0,0,0,0,0,0,0,0,0,0,0,2.8427,2.8404,2.8462,2.8456,2.8456,2.8484,2.8485,2.8485,2.8466,2.8465,2.8464,2.8463,2.8484,2.8486,2.8488,2.8524,0,0,2.8494,2.8495,0,0,0,0,0,0,0,0,2.8426,2.8429,2.8457,2.8457,2.8456,2.8471,2.8471,2.8498,2.8467,2.8462,2.8464,2.8462,2.8481,2.8484,2.849,2.8525,2.8526,2.8494,2.8495,2.8496,2.8497,0,0,0,0,0,0,0,2.8424,2.8428,2.8471,2.8457,2.8457,2.8452,2.8454,2.8476,2.8478,2.8462,2.8461,2.8464,2.8481,2.8488,2.8491,2.8526,2.8494,2.8496,2.8497,2.8498,2.8589,2.859,0,0,0,0,0,0,2.8423,2.8427,2.847,2.8472,2.8438,2.8454,2.8456,2.8468,2.8478,2.8478,2.8465,2.8463,2.8486,2.8488,2.8491,2.8532,2.8496,2.8498,2.8499,2.8588,2.859,2.8591,0,0,0,0,0,0,2.8422,2.8427,2.8469,2.8449,2.8454,2.8456,2.8469,2.8469,2.8476,2.848,2.848,2.8472,2.8485,2.8489,2.8515,2.8533,2.8499,2.8501,2.8587,2.8589,2.859,2.8616,0,0,0,0,0,0,2.842,2.8427,2.8441,2.8449,2.8455,2.8494,2.847,2.847,2.8479,2.8477,2.8487,2.8487,2.8484,2.8513,2.8517,2.8535,2.8502,2.8585,2.8587,2.859,2.8613,2.8618,2.8623,0,0,0,0,0,2.8418,2.8447,2.8441,2.8447,2.8472,2.8495,2.8498,2.8494,2.8481,2.8494,2.8497,2.8487,2.8531,2.8516,2.8521,2.8539,2.8584,2.8587,2.8589,2.8611,2.8617,2.8622,0,0,0,0,0,0,2.844,2.8448,2.8442,2.8475,2.8484,2.8492,2.8509,2.8501,2.8514,2.8512,2.8506,2.8509,2.8537,2.8541,2.8524,2.8574,2.8555,2.8559,2.857,2.8576,2.858,2.8578,2.8504,0,0,0,0,0,2.8449,2.8467,2.8472,2.8501,2.8506,2.8507,2.8516,2.8513,2.8522,2.8526,2.853,2.854,2.8555,2.8566,2.8581,2.8614,2.8615,2.8629,2.8634,2.8638,2.8641,2.8658,2.8664,2.86,2.86,2.86,0,0,2.8467,2.8473,2.8485,2.8505,2.8512,2.853,2.851,2.853,2.8543,2.8529,2.8554,2.8558,2.8568,2.8598,2.8612,2.8602,2.8659,2.8641,2.8644,2.8645,2.8661,2.8667,2.8673,2.8602,2.8602,2.8601,0,0,2.8508,2.8516,2.8539,2.8547,2.8558,2.8558,2.8564,2.8572,2.8574,2.86,2.8589,2.8604,2.8632,2.8639,2.8647,2.8691,2.8681,2.8696,2.8719,2.8736,2.8741,2.8745,2.876,2.8765,2.8699,2.8699,2.8699,0,2.8529,2.8556,2.8552,2.8573,2.8582,2.857,2.8594,2.8601,2.8616,2.8622,2.8612,2.8646,2.8652,2.8683,2.8694,2.87,2.8706,2.8694,2.874,2.8745,2.8749,2.8763,2.8768,2.8701,2.8701,2.87,2.87,0,2.858,2.8599,2.8617,2.8632,2.8643,2.8665,2.8664,2.8676,2.8671,2.8672,2.8698,2.8705,2.8721,2.8728,2.8724,2.8758,2.8752,2.8741,2.8722,2.8757,2.8769,2.8775,2.8703,2.8703,2.8702,2.8702,0,0,2.8636,2.8648,2.8655,2.8661,2.8672,2.8686,2.8708,2.8723,2.8732,2.8744,2.876,2.8784,2.8774,2.8782,2.8779,2.8794,2.8826,2.8781,2.8781,2.8788,2.8863,2.887,2.8877,2.8821,2.8822,2.8823,2.8862,0,2.8677,2.8714,2.8711,2.8746,2.8763,2.8752,2.877,2.8779,2.878,2.8794,2.8796,2.8812,2.8799,2.8803,2.8817,2.8819,2.8841,2.8817,2.8835,2.8836,2.8832,2.8884,2.8891,2.8928,2.8867,2.8868,2.8869,0,2.8729,2.8742,2.8779,2.8786,2.8793,2.881,2.8823,2.8837,2.8847,2.8847,2.8856,2.885,2.8871,2.8852,2.888,2.8863,2.8871,2.8873,2.8874,2.8875,2.8854,2.8884,2.894,2.8945,2.8877,2.8876,2.8876,0,2.8764,2.8791,2.8816,2.8822,2.8832,2.8843,2.8848,2.8856,2.8866,2.8877,2.8883,2.8897,2.8904,2.8915,2.8913,2.89,2.8941,2.8922,2.8941,2.8941,2.8949,2.8948,2.9005,2.8956,2.8956,2.8956,2.8956,0,2.881,2.8832,2.8831,2.8847,2.8871,2.8868,2.8892,2.8895,2.8903,2.8918,2.891,2.8924,2.8921,2.8935,2.8933,2.8955,2.8959,2.8959,2.8958,2.8959,2.8959,2.8963,2.896,2.8957,2.8957,2.8957,2.8956,0,2.8853,2.8853,2.8879,2.8887,2.8889,2.8907,2.8913,2.8927,2.8928,2.8947,2.8952,2.8953,2.8969,2.8968,2.8987,2.8986,2.9013,2.901,2.901,2.9009,2.9026,2.9024,2.9087,2.9095,2.9042,2.9042,2.9043,0,2.8881,2.8898,2.8907,2.8917,2.8922,2.8938,2.8947,2.8945,2.8955,2.8966,2.8979,2.8994,2.9006,2.9032,2.9034,2.9048,2.9044,2.9065,2.9046,2.9046,2.9043,2.9041,2.9042,2.9068,2.9069,2.907,2.907,0,2.893,2.893,2.8944,2.8958,2.8969,2.898,2.899,2.8998,2.8996,2.9008,2.9024,2.9034,2.9052,2.9067,2.908,2.9084,2.9076,2.9076,2.9081,2.9081,2.908,2.908,2.9019,2.9074,2.9074,2.9074,2.9073,2.9073,2.8966,2.898,2.8989,2.9004,2.9011,2.9021,2.9034,2.9037,2.9051,2.9065,2.9063,2.9081,2.9089,2.9106,2.9111,2.9125,2.9117,2.9124,2.9126,2.9127,2.9129,2.9079,2.9127,2.9127,2.9127,2.9127,2.9127,0,2.9014,2.9019,2.9033,2.9047,2.9059,2.9052,2.9062,2.9073,2.9089,2.9097,2.9109,2.9128,2.9142,2.9146,2.9159,2.9169,2.9166,2.9173,2.9171,2.9172,2.9136,2.9129,2.9175,2.9175,2.9175,2.9175,2.9175,2.9175,2.904,2.9063,2.9064,2.909,2.9095,2.9113,2.9119,2.9127,2.9134,2.9155,2.9167,2.9169,2.9175,2.9189,2.9202,2.9203,2.9207,2.9215,2.9214,2.918,2.9175,2.917,2.9164,2.9217,2.9217,2.925,2.925,2.925]},{"header":{"parameterUnit":"m.s-1","parameterCategory":1,"la1":30.2991,"la2":30.254,"lo1":-89.0895,"lo2":-89.0444,"dy":0.0017,"dx":0.0017,"nx":28,"ny":28,"refTime":"2025-04-13T09:00:00:Z","depth":0,"parameterNumber":3,"parameterNumberName":"V-component_of_WINDS"},"data":[0,0,0,0,0,0,0,0,0,0,0,0,0,0,0,0,0,0,0,0,0,0,0,0,0,0,0,0,0,0,0,0,0,0,0,0,0,0,0,0,0,0,0,0,0,0,0,0,0,0,0,0,0,0,0,0,0,0,4.2137,4.2137,0,4.2119,4.2118,4.2118,4.2083,4.2083,4.2082,4.2081,4.2063,4.2063,4.2063,0,0,0,0,0,0,0,0,0,0,0,0,0,4.2143,4.2143,4.2137,4.2137,4.2137,4.2119,4.2118,4.2118,4.2083,4.2083,4.2082,4.2081,4.2063,4.2063,4.2063,0,0,0,0,0,0,0,0,0,0,0,0,0,4.2134,4.2143,4.2137,4.2117,4.2115,4.2119,4.2118,4.2118,4.2084,4.2083,4.2082,4.2081,4.2063,4.2063,4.2063,4.2085,0,0,4.2064,4.2064,0,0,0,0,0,0,0,0,4.2134,4.2134,4.212,4.2118,4.2116,4.2102,4.2114,4.2107,4.2084,4.2096,4.2081,4.208,4.2077,4.2076,4.2075,4.2084,4.2083,4.2064,4.2064,4.2064,4.2064,0,0,0,0,0,0,0,4.2135,4.2134,4.213,4.212,4.2118,4.2109,4.2107,4.2112,4.2092,4.2094,4.2092,4.209,4.2075,4.2074,4.2074,4.2083,4.2064,4.2064,4.2064,4.2064,4.211,4.2111,0,0,0,0,0,0,4.2139,4.2135,4.213,4.2129,4.2123,4.211,4.2107,4.2108,4.2092,4.2089,4.2091,4.2089,4.2075,4.2074,4.2073,4.2098,4.2064,4.2064,4.2064,4.2109,4.211,4.2111,0,0,0,0,0,0,4.2139,4.2138,4.2131,4.2131,4.213,4.2111,4.2112,4.2108,4.2107,4.2089,4.2086,4.2094,4.2074,4.2073,4.2082,4.2097,4.2064,4.2065,4.2108,4.2109,4.2111,4.2147,0,0,0,0,0,0,4.2139,4.2139,4.2147,4.2132,4.213,4.214,4.2113,4.2108,4.2107,4.2104,4.2091,4.2088,4.2073,4.2082,4.2083,4.2096,4.2065,4.2106,4.2108,4.211,4.2144,4.215,4.2154,0,0,0,0,0,4.2139,4.2158,4.2147,4.2147,4.2139,4.2141,4.214,4.2123,4.2109,4.2116,4.2105,4.2088,4.2095,4.2083,4.2084,4.2098,4.2105,4.2108,4.211,4.2142,4.2149,4.2154,0,0,0,0,0,0,4.2174,4.2155,4.2143,4.2157,4.2151,4.2135,4.2145,4.213,4.2128,4.2125,4.2103,4.2101,4.2113,4.2106,4.2094,4.2118,4.2097,4.21,4.2122,4.2128,4.2133,4.2134,4.2065,0,0,0,0,0,4.2184,4.2187,4.217,4.2184,4.2181,4.2164,4.2164,4.2151,4.2144,4.2141,4.2131,4.2125,4.2125,4.2126,4.2126,4.2144,4.214,4.2153,4.2158,4.2162,4.2165,4.2174,4.2179,4.2119,4.2119,4.2119,0,0,4.2203,4.2193,4.2196,4.219,4.2184,4.2188,4.2162,4.2167,4.2169,4.2142,4.215,4.2142,4.2134,4.2148,4.2153,4.2143,4.2181,4.2165,4.2169,4.2169,4.2177,4.2183,4.2188,4.2121,4.2121,4.212,0,0,4.224,4.2233,4.2243,4.2238,4.2229,4.2217,4.222,4.2206,4.22,4.2208,4.2188,4.2191,4.2193,4.2188,4.2185,4.2221,4.2206,4.2222,4.2247,4.2256,4.2261,4.2265,4.2278,4.2283,4.2225,4.2225,4.2225,0,4.2265,4.227,4.2251,4.2257,4.2256,4.2231,4.2242,4.2238,4.2229,4.2229,4.2217,4.2219,4.2211,4.2224,4.2233,4.2232,4.2234,4.2223,4.2262,4.2266,4.2269,4.2282,4.2287,4.2227,4.2226,4.2226,4.2226,0,4.2301,4.2305,4.2315,4.2307,4.2306,4.2315,4.2298,4.23,4.2287,4.2277,4.2286,4.2277,4.2274,4.2276,4.2264,4.2287,4.2281,4.2266,4.2245,4.2278,4.2289,4.2293,4.223,4.2229,4.2228,4.2228,0,0,4.2359,4.2341,4.2345,4.2341,4.233,4.2333,4.2341,4.2338,4.234,4.2336,4.2342,4.2344,4.2331,4.2328,4.2315,4.2323,4.2353,4.2307,4.2307,4.2316,4.2378,4.2389,4.2395,4.2343,4.2343,4.2344,4.2379,0,4.2393,4.2405,4.2389,4.2405,4.2408,4.2385,4.2392,4.2386,4.2377,4.2379,4.2369,4.2371,4.2353,4.2351,4.2358,4.2348,4.2365,4.2345,4.2348,4.2349,4.2351,4.2401,4.2412,4.2446,4.2383,4.2384,4.2384,0,4.2434,4.2432,4.2448,4.2436,4.2437,4.2443,4.244,4.2442,4.2435,4.2428,4.2426,4.2411,4.2418,4.2398,4.2408,4.2395,4.2395,4.239,4.2391,4.2391,4.2368,4.2402,4.2456,4.2461,4.2391,4.239,4.239,0,4.2475,4.2475,4.2485,4.2483,4.2469,4.2475,4.2469,4.2461,4.2461,4.2458,4.2458,4.2457,4.2456,4.2455,4.244,4.2427,4.2452,4.243,4.2446,4.2447,4.2452,4.2452,4.2508,4.2453,4.2453,4.2453,4.2453,0,4.2515,4.2526,4.2503,4.2509,4.2521,4.2503,4.2515,4.2507,4.25,4.2505,4.2485,4.249,4.247,4.2472,4.2461,4.2471,4.2471,4.2465,4.2462,4.2467,4.2468,4.2467,4.2464,4.2454,4.2454,4.2454,4.2454,0,4.2562,4.2547,4.2557,4.2543,4.254,4.2549,4.2538,4.2543,4.2533,4.2539,4.2539,4.2523,4.2526,4.2511,4.251,4.2502,4.2518,4.2511,4.2521,4.2518,4.2535,4.2534,4.2592,4.2599,4.254,4.2541,4.2541,0,4.2588,4.2596,4.2583,4.2585,4.2581,4.2583,4.2583,4.2565,4.2566,4.2559,4.2566,4.2566,4.2566,4.257,4.2559,4.2559,4.2551,4.2572,4.2551,4.2556,4.2552,4.2551,4.2552,4.2576,4.2577,4.2577,4.2578,0,4.2636,4.2629,4.2629,4.2627,4.2628,4.2626,4.2622,4.2624,4.2605,4.2607,4.2609,4.2609,4.2609,4.261,4.2607,4.2602,4.2587,4.2584,4.2588,4.2593,4.2598,4.2596,4.2532,4.2583,4.2582,4.2582,4.2582,4.2581,4.2673,4.268,4.2672,4.2673,4.2669,4.2666,4.2671,4.2661,4.2662,4.2661,4.265,4.2654,4.2648,4.2643,4.2639,4.2642,4.2633,4.2638,4.2639,4.2641,4.2644,4.2598,4.2642,4.2642,4.2642,4.2641,4.2641,0,4.2721,4.2715,4.2716,4.2712,4.2713,4.2699,4.2695,4.2697,4.27,4.2695,4.2696,4.2698,4.2699,4.2688,4.2688,4.2693,4.2686,4.2693,4.2693,4.2692,4.2653,4.2649,4.2699,4.2699,4.2699,4.2699,4.2699,4.2699,4.2745,4.2755,4.2747,4.2754,4.2748,4.2752,4.2751,4.2749,4.2745,4.2748,4.2749,4.2742,4.2735,4.2734,4.2735,4.2732,4.2732,4.2742,4.2737,4.27,4.2695,4.2689,4.2686,4.2743,4.2743,4.2776,4.2776,4.2776]}]]